When you browse on this site, cookies collect data to enhance your experience and personalize the content and advertising you see.
Visit our Privacy Policy to learn more. By continuing to use the site, you agree to this use of cookies and data.
  • In Schweiz
  • Länderverzeichnis
  • Für 7 Tage
  • Wassertemperatur
  • Wetterkarte
  • Widgets
  • user-avatar
    Anmelden

    Stündliche Wetter Babruisk

    Heute, 16 Oktober, Mittwoch

    Zeit Temperatur Niederschläge Wind Luftdruck Luftfeuchtigkeit
    00:00 +12°C° 0 mm 4 m/S 751 mmHg 78%
    01:00 +12°C° 0 mm 4 m/S 751 mmHg 79%
    02:00 +12°C° 0 mm 3 m/S 751 mmHg 77%
    03:00 +12°C° 0 mm 3 m/S 751 mmHg 80%
    04:00 +12°C° 0 mm 3 m/S 751 mmHg 83%
    05:00 +12°C° 0 mm 4 m/S 750 mmHg 85%
    06:00 +12°C° 0 mm 4 m/S 750 mmHg 84%
    07:00 +12°C° 0 mm 4 m/S 750 mmHg 82%
    08:00 +13°C° 0 mm 5 m/S 750 mmHg 79%
    09:00 +14°C° 0 mm 5 m/S 750 mmHg 71%
    10:00 +16°C° 0 mm 6 m/S 750 mmHg 63%
    11:00 +19°C° 0 mm 6 m/S 749 mmHg 54%
    12:00 +19°C° 0 mm 6 m/S 749 mmHg 51%
    13:00 +20°C° 0 mm 6 m/S 749 mmHg 48%
    14:00 +20°C° 0 mm 6 m/S 749 mmHg 45%
    15:00 +19°C° 0 mm 5 m/S 748 mmHg 47%
    16:00 +17°C° 0 mm 5 m/S 748 mmHg 50%
    17:00 +15°C° 0 mm 4 m/S 748 mmHg 53%
    18:00 +15°C° 0 mm 4 m/S 748 mmHg 55%
    19:00 +14°C° 0 mm 4 m/S 748 mmHg 56%
    20:00 +13°C° 0 mm 4 m/S 748 mmHg 58%
    21:00 +13°C° 0 mm 4 m/S 748 mmHg 60%
    22:00 +12°C° 0 mm 4 m/S 748 mmHg 61%
    23:00 +12°C° 0 mm 4 m/S 748 mmHg 63%

    Morgen, 17 Oktober, Donnerstag

    Zeit Temperatur Niederschläge Wind Luftdruck Luftfeuchtigkeit
    00:00 +12°C° 0 mm 3 m/S 748 mmHg 65%
    01:00 +11°C° 0 mm 3 m/S 748 mmHg 67%
    02:00 +11°C° 0 mm 3 m/S 748 mmHg 69%
    03:00 +11°C° 0 mm 3 m/S 748 mmHg 72%
    04:00 +10°C° 0 mm 3 m/S 748 mmHg 75%
    05:00 +10°C° 0 mm 3 m/S 748 mmHg 78%
    06:00 +10°C° 0 mm 3 m/S 748 mmHg 80%
    07:00 +11°C° 0 mm 3 m/S 748 mmHg 83%
    08:00 +12°C° 0 mm 3 m/S 748 mmHg 85%
    09:00 +13°C° 0 mm 3 m/S 748 mmHg 77%
    10:00 +15°C° 0 mm 4 m/S 749 mmHg 70%
    11:00 +17°C° 0 mm 4 m/S 749 mmHg 62%
    12:00 +16°C° 0 mm 5 m/S 749 mmHg 59%
    13:00 +17°C° 0 mm 5 m/S 749 mmHg 57%
    14:00 +17°C° 0 mm 5 m/S 749 mmHg 54%
    15:00 +17°C° 0 mm 4 m/S 749 mmHg 60%
    16:00 +14°C° 0 mm 3 m/S 749 mmHg 65%
    17:00 +13°C° 0 mm 3 m/S 749 mmHg 71%
    18:00 +12°C° 0 mm 3 m/S 749 mmHg 75%
    19:00 +12°C° 0 mm 3 m/S 749 mmHg 78%
    20:00 +12°C° 0 mm 2 m/S 750 mmHg 82%
    21:00 +10°C° 0 mm 2 m/S 750 mmHg 84%
    22:00 +10°C° 0 mm 2 m/S 750 mmHg 86%
    23:00 +9°C° 0 mm 2 m/S 750 mmHg 88%

    übermorgen, 18 Oktober, Freitag

    Zeit Temperatur Niederschläge Wind Luftdruck Luftfeuchtigkeit
    00:00 +9°C° 0 mm 2 m/S 750 mmHg 89%
    01:00 +9°C° 0 mm 2 m/S 750 mmHg 90%
    02:00 +9°C° 0 mm 2 m/S 751 mmHg 91%
    03:00 +9°C° 0 mm 2 m/S 751 mmHg 92%
    04:00 +9°C° 0 mm 2 m/S 751 mmHg 93%
    05:00 +8°C° 0 mm 2 m/S 751 mmHg 93%
    06:00 +9°C° 0 mm 2 m/S 751 mmHg 92%
    07:00 +9°C° 0 mm 2 m/S 751 mmHg 90%
    08:00 +10°C° 0 mm 2 m/S 751 mmHg 89%
    09:00 +13°C° 0 mm 2 m/S 751 mmHg 82%
    10:00 +14°C° 0 mm 2 m/S 751 mmHg 75%
    11:00 +16°C° 0 mm 2 m/S 751 mmHg 68%
    12:00 +17°C° 0 mm 2 m/S 751 mmHg 66%
    13:00 +17°C° 0 mm 2 m/S 751 mmHg 63%
    14:00 +18°C° 0 mm 2 m/S 751 mmHg 61%
    15:00 +17°C° 0 mm 2 m/S 751 mmHg 67%
    16:00 +16°C° 0 mm 1 m/S 750 mmHg 72%
    17:00 +14°C° 0 mm 1 m/S 750 mmHg 78%
    18:00 +14°C° 0 mm 1 m/S 750 mmHg 80%
    19:00 +13°C° 0 mm 1 m/S 750 mmHg 82%
    20:00 +13°C° 0 mm 1 m/S 751 mmHg 84%
    21:00 +13°C° 0 mm 1 m/S 751 mmHg 85%
    22:00 +12°C° 0 mm 2 m/S 751 mmHg 85%
    23:00 +12°C° 0 mm 2 m/S 751 mmHg 86%

    19 Oktober, Samstag

    Zeit Temperatur Niederschläge Wind Luftdruck Luftfeuchtigkeit
    00:00 +12°C° 0 mm 2 m/S 751 mmHg 86%
    01:00 +12°C° 0 mm 2 m/S 751 mmHg 86%
    02:00 +12°C° 0 mm 2 m/S 751 mmHg 86%
    03:00 +12°C° 0 mm 2 m/S 751 mmHg 85%
    04:00 +10°C° 0 mm 2 m/S 751 mmHg 84%
    05:00 +10°C° 0 mm 2 m/S 751 mmHg 83%
    06:00 +12°C° 0 mm 2 m/S 751 mmHg 80%
    07:00 +11°C° 0 mm 3 m/S 751 mmHg 77%
    08:00 +11°C° 0 mm 3 m/S 751 mmHg 75%
    09:00 +12°C° 0 mm 3 m/S 751 mmHg 72%
    10:00 +13°C° 0 mm 3 m/S 751 mmHg 69%
    11:00 +14°C° 0 mm 4 m/S 751 mmHg 66%
    12:00 +15°C° 0 mm 4 m/S 751 mmHg 64%
    13:00 +17°C° 0 mm 3 m/S 750 mmHg 62%
    14:00 +18°C° 0 mm 3 m/S 750 mmHg 60%
    15:00 +17°C° 0 mm 3 m/S 750 mmHg 65%
    16:00 +16°C° 0 mm 3 m/S 750 mmHg 70%
    17:00 +14°C° 0 mm 3 m/S 750 mmHg 75%
    18:00 +13°C° 0 mm 3 m/S 750 mmHg 75%
    19:00 +13°C° 0 mm 3 m/S 750 mmHg 76%
    20:00 +12°C° 0 mm 4 m/S 750 mmHg 77%
    21:00 +12°C° 0 mm 4 m/S 750 mmHg 78%
    22:00 +12°C° 0 mm 3 m/S 750 mmHg 79%
    23:00 +11°C° 0 mm 3 m/S 751 mmHg 79%

    20 Oktober, Sonntag

    Zeit Temperatur Niederschläge Wind Luftdruck Luftfeuchtigkeit
    00:00 +11°C° 0 mm 3 m/S 751 mmHg 80%
    01:00 +11°C° 0 mm 3 m/S 751 mmHg 80%
    02:00 +11°C° 0 mm 3 m/S 750 mmHg 81%
    03:00 +11°C° 0 mm 3 m/S 751 mmHg 81%
    04:00 +10°C° 0 mm 3 m/S 751 mmHg 81%
    05:00 +10°C° 0 mm 3 m/S 751 mmHg 82%
    06:00 +11°C° 0 mm 3 m/S 751 mmHg 80%
    07:00 +11°C° 0 mm 3 m/S 751 mmHg 78%
    08:00 +11°C° 0 mm 3 m/S 751 mmHg 77%
    09:00 +13°C° 0 mm 3 m/S 751 mmHg 71%
    10:00 +14°C° 0 mm 3 m/S 751 mmHg 66%
    11:00 +17°C° 0 mm 3 m/S 751 mmHg 61%
    12:00 +18°C° 0 mm 3 m/S 751 mmHg 59%
    13:00 +19°C° 0 mm 3 m/S 751 mmHg 57%
    14:00 +19°C° 0 mm 3 m/S 751 mmHg 55%
    15:00 +18°C° 0 mm 3 m/S 751 mmHg 59%
    16:00 +17°C° 0 mm 3 m/S 751 mmHg 64%
    17:00 +16°C° 0 mm 3 m/S 751 mmHg 68%
    18:00 +14°C° 0 mm 3 m/S 751 mmHg 70%
    19:00 +14°C° 0 mm 3 m/S 751 mmHg 72%
    20:00 +13°C° 0 mm 3 m/S 751 mmHg 73%
    21:00 +13°C° 0 mm 3 m/S 751 mmHg 74%
    22:00 +13°C° 0 mm 3 m/S 751 mmHg 75%
    23:00 +12°C° 0 mm 3 m/S 751 mmHg 76%

    21 Oktober, Montag

    Zeit Temperatur Niederschläge Wind Luftdruck Luftfeuchtigkeit
    00:00 +12°C° 0 mm 3 m/S 751 mmHg 76%
    01:00 +12°C° 0 mm 3 m/S 751 mmHg 76%
    02:00 +11°C° 0 mm 3 m/S 751 mmHg 76%
    03:00 +11°C° 0 mm 3 m/S 751 mmHg 77%
    04:00 +11°C° 0 mm 3 m/S 751 mmHg 77%
    05:00 +10°C° 0 mm 3 m/S 751 mmHg 78%
    06:00 +11°C° 0 mm 3 m/S 751 mmHg 78%
    07:00 +11°C° 0 mm 3 m/S 751 mmHg 78%
    08:00 +11°C° 0 mm 3 m/S 752 mmHg 78%
    09:00 +13°C° 0 mm 3 m/S 752 mmHg 75%
    10:00 +14°C° 0 mm 4 m/S 752 mmHg 72%
    11:00 +17°C° 0 mm 4 m/S 752 mmHg 68%
    12:00 +18°C° 0 mm 4 m/S 752 mmHg 67%
    13:00 +18°C° 0 mm 4 m/S 753 mmHg 65%
    14:00 +19°C° 0 mm 4 m/S 753 mmHg 64%
    15:00 +18°C° 0 mm 3 m/S 753 mmHg 70%
    16:00 +16°C° 0 mm 3 m/S 753 mmHg 76%
    17:00 +15°C° 0 mm 2 m/S 753 mmHg 83%
    18:00 +14°C° 0 mm 2 m/S 753 mmHg 86%
    19:00 +14°C° 0 mm 2 m/S 753 mmHg 89%
    20:00 +13°C° 0 mm 2 m/S 753 mmHg 92%
    21:00 +13°C° 0 mm 1 m/S 754 mmHg 93%
    22:00 +12°C° 0 mm 1 m/S 754 mmHg 93%
    23:00 +12°C° 0 mm 1 m/S 754 mmHg 94%
    Mehr zeigen